Погода в Кересе

Россия / Республика Коми     61°52′05″N   52°40′12″E
темп.,
°C
ветер,
м/с
пор.,
м/с
влажн.,
%
обл.,
%
осадки,
мм/ч
давл.,
гПа
погр.,
м
16 апреля, пт
пт1600:00−2ссз12852 0.0 102939
03:00−2зсз11875 0.0 103011
06:000зсз12754 0.0 1032137
09:00+4зсз34537 0.0 10321244
12:00+6зсз354798 0.0 10311634
15:00+6зсз365098 0.0 10301658
18:00+4з257187 0.0 102997
21:00+1зюз39835 0.0 1029169
17 апреля, сб
сб1700:000з310905 0.0 1029248
03:00−1з39955 0.0 1029248
06:00+1зсз3108794 0.0 1028511
09:00+4зсз486574 0.0 1027887
12:00+8зсз6115678 0.0 10251527
15:00+8зсз61360100 0.2 10231730
18:00+6сз613697 0.2 10231354
21:00+4ссз5107799 0.4 10241125
18 апреля, вс
вс1800:000с496743 0.6 10271029
03:00−3с49735 0.6 1030874
06:00−3ссв47655 0.0 1033721
09:000св46400 0.0 10351156
12:00+3св45300 0.0 10361706
15:00+3св34280 0.0 10361837
18:00+1св25410 0.0 1037145
21:00−3всв22545 0.0 103838
19 апреля, пн
пн1900:00−3в11545 0.0 104012
03:00−4юв11525 0.0 104010
06:00−1юз004211 0.0 1041199
09:00+3зсз112996 0.0 10411152
12:00+5з22250 0.0 10391414
15:00+5з23250 0.0 10381422
18:00+3з11400 0.0 103712
21:000зюз22515 0.0 103731
20 апреля, вт
вт2000:00−1зюз265668 0.0 1037107
03:00−1зюз28595 0.0 1037157
06:00+1з37495 0.0 1037247
09:00+6зсз35347 0.0 1035850
12:00+9з23305 0.0 10341240
15:00+10з33305 0.0 10331265
18:00+7зсз11440 0.0 103210
21:00+3ююз11540 0.0 103310